TimeMDT,TemperatureF,Dew PointF,Humidity,Sea Level PressureIn,VisibilityMPH,Wind Direction,Wind SpeedMPH,Gust SpeedMPH,PrecipitationIn,Events,Conditions,WindDirDegrees,DateUTC
12:53 AM,66.0,46.0,48,29.87,10.0,SW,6.9,-,N/A,,Clear,230,2013-07-23 06:53:00
1:53 AM,63.0,48.0,58,29.87,10.0,South,6.9,-,N/A,,Clear,190,2013-07-23 07:53:00
2:53 AM,63.0,48.0,58,29.84,10.0,South,8.1,-,N/A,,Clear,180,2013-07-23 08:53:00
3:53 AM,60.1,46.9,62,29.86,10.0,North,3.5,-,N/A,,Clear,350,2013-07-23 09:53:00
4:53 AM,61.0,46.9,60,29.85,10.0,Calm,Calm,-,N/A,,Clear,0,2013-07-23 10:53:00
5:53 AM,57.0,46.9,69,29.88,10.0,ENE,5.8,-,N/A,,Clear,60,2013-07-23 11:53:00
6:53 AM,62.1,46.9,58,29.88,10.0,Calm,Calm,-,N/A,,Clear,0,2013-07-23 12:53:00
7:53 AM,69.1,46.9,45,29.88,10.0,Calm,Calm,-,N/A,,Clear,0,2013-07-23 13:53:00
8:53 AM,72.0,52.0,49,29.91,10.0,Calm,Calm,-,N/A,,Clear,0,2013-07-23 14:53:00
9:53 AM,77.0,51.1,40,29.88,10.0,SW,5.8,-,N/A,,Clear,220,2013-07-23 15:53:00
10:53 AM,80.1,45.0,29,29.88,10.0,ESE,6.9,-,N/A,,Clear,110,2013-07-23 16:53:00
11:53 AM,82.9,46.0,27,29.88,10.0,SSE,9.2,-,N/A,,Clear,150,2013-07-23 17:53:00
12:53 PM,84.0,41.0,22,29.86,10.0,SSW,5.8,18.4,N/A,,Clear,210,2013-07-23 18:53:00
1:53 PM,87.1,37.9,18,29.84,10.0,South,11.5,21.9,N/A,,Clear,170,2013-07-23 19:53:00
2:53 PM,87.1,37.0,17,29.83,10.0,South,9.2,16.1,N/A,,Clear,190,2013-07-23 20:53:00
3:17 PM,89.6,35.6,15,30.20,10.0,ENE,8.1,20.7,N/A,,Clear,60,2013-07-23 21:17:00
3:53 PM,88.0,33.1,14,29.82,10.0,ESE,12.7,19.6,N/A,,Clear,110,2013-07-23 21:53:00
4:53 PM,86.0,33.1,15,29.82,10.0,SE,12.7,19.6,N/A,,Partly Cloudy,130,2013-07-23 22:53:00
5:53 PM,82.9,43.0,24,29.85,10.0,NW,17.3,-,N/A,,Scattered Clouds,310,2013-07-23 23:53:00
6:53 PM,81.0,41.0,24,29.85,10.0,NNW,11.5,-,N/A,,Scattered Clouds,340,2013-07-24 00:53:00
7:53 PM,75.9,43.0,31,29.85,10.0,NNW,3.5,-,N/A,,Clear,340,2013-07-24 01:53:00
8:53 PM,73.0,44.1,35,29.88,10.0,East,3.5,-,N/A,,Clear,80,2013-07-24 02:53:00
9:53 PM,70.0,46.0,42,29.91,10.0,SE,6.9,-,N/A,,Clear,130,2013-07-24 03:53:00
10:53 PM,70.0,46.0,42,29.92,10.0,ENE,12.7,-,N/A,,Scattered Clouds,70,2013-07-24 04:53:00
11:53 PM,66.9,48.9,52,29.94,10.0,East,15.0,-,N/A,,Clear,100,2013-07-24 05:53:00